CZ-3C DEB, 40856

Orbit data source: Space-Track

CZ-3C DEB, 40856 is space debris in HEO originally from a launch on Fri, 24 Feb 2012 UTC launched from the Xichang Space Center, China (XSC). Debris objects in space refer to the collection of defunct objects orbiting the Earth. Examples of debris include non-operational satellites, rocket bodies, and fragments generated from explosions, collisions, or faulty payload assembly.

Loading next visibility...
Identifier
40856, 2012-008W
Orbit
HEO
Country
Flag of CNCN / PRC
Related business
Manufacturer
CALT
Mission
Spacecraft
Bus & Motor
Unknown
Mass
Unknown
Launch date (UTC)
2012-02-24 (14 years ago)
Launch vehicle
Unknown
Launch site
Xichang Space Center, China (XSC)
Object type
Payload
Rocket body
Debris
Shape & HBR
Unknown shape, 0.1 m
Radar Cross Section
Medium (>0.1 m² and <1 m²)

Expand to show TLE details & history
Last TLE update: 1 day ago

TLE from 1 day ago
0 CZ-3C DEB
1 40856U 12008W   25339.23203256 -.00000425  00000-0 -58768-2 0  9998
2 40856  22.0055 347.7111 7056347 225.1792  49.5340  2.35403325 94637
Epoch: 2025-12-05T05:34Z
TLE epoch observation values (Epoch: 2025-12-05T05:34:07.613Z)
Latitude
-0.00033°
Longitude
-170.11371°
Altitude
17,418.781 km
Speed
4.099 km/s
True Right ascension
23h 10m 46s
True Declination
0° 00' 01"
Sunlit
Object was in daylight at epoch
Visualization orbit readout
Latitude
Unknown
Longitude
Unknown
Altitude
Unknown
Speed
Unknown
Apparent Right ascension
Unknown
Apparent Declination
Unknown
Sunlit
N/A
Visualization observer readout
Local Sidereal Time
06:48:29
Azimuth
Unknown
Elevation
Unknown
Doppler factor
Unknown
Orbital elements
Apogee altitude
34,343.093 km
Perigee altitude
649.697 km
Semi-major axis
23,874.532 km
Eccentricity
0.70563
Inclination
22.0055°
RAAN
347.7111°
Arg. of periapsis
225.1792°
True anomaly
134.85525°
Mean anomaly
49.534°
Eccentric anomaly
89.96388°
Mean motion
0.58836 °/min
Orbital period
611.87 mins
BSTAR
-0.0058768
Loading maneuver chart data...
Computing Atmospheric mass density...
Loading historical data...
Loading historical data...
Loading historical data...
Loading historical data...
Loading historical data...
Loading historical data...
Loading historical data...

Documentation

Showing up to 5 results
|